{"data":{"norad_id":66776,"intl_designator":"2025-276DQ","name":"LEMUR-2-LAILA","alt_names":[],"object_type":"PAYLOAD","status":"ACTIVE","operator":null,"country":"US","launch_date":"2025-11-28","launch_site_code":"AFWTR","launch_vehicle":null,"mission":null,"orbit_class":"UNKNOWN","rcs_meters":null,"size_class":null,"mass_kg":null,"dimensions":null,"purposes":["earth_obs"],"wikipedia_slug":null,"has_3d_model":false,"image_url":null,"decayed_at":null,"tle_current":{"epoch":"2026-09-19T10:48:17.145216Z","epoch_age_seconds":105231,"freshness":"FRESH","line1":"1 66776U 25276DQ  26262.45019844  .00003594  00000+0  15978-3 0  9990","line2":"2 66776  97.4093 334.9620 0001540 143.1405 216.9938 15.22149450 44785","mean_motion":15.2214945,"eccentricity":0.000154,"inclination_deg":97.4093,"raan_deg":334.962,"arg_perigee_deg":143.1405,"mean_anomaly_deg":216.9938,"bstar":0.00015978,"rev_number":4478,"period_min":94.603062793867,"perigee_km":498.29930809732,"apogee_km":500.41757669358,"semimajor_km":6877.4954423954,"source":"CELESTRAK","updated_at":"2026-09-20T09:00:34.879610Z"}}}